Choose a state:
Most recent flow and stage for Montana
(Stations highlighted in red are currently above flood stage)
USGS
station
ID
USGS station name NWS
flood
stage
(ft)
Most recent
stage
(ft)
Most recent
flow
(cfs)
Historical
peaks
(cfs)
Most recent
local
date/time
NWS
station
ID
05014300 Swiftcurrent Cr ab Swiftcurrent Lk at Many Glacier   1.30 Ssn 2,000 2017-01-21 05:30:00 SCLM8
05014500 Swiftcurrent Creek at Many Glacier MT   1.74 49 6,700 2017-02-21 08:30:00 MGGM8
05015500 Lake Sherburne at Sherburne MT   4778.71

 

  2017-02-21 08:00:00 SBUM8
05017500 St. Mary River near Babb MT   1.82 185 16,500 2017-02-21 08:15:00 SMYM8
05018000 St. Mary Canal at intake near Babb MT   2.49 Ssn   2017-02-21 08:15:00 SCIM8
05018500 St. Mary Canal at St. Mary Crossing near Babb MT   2.04 Ssn   2017-02-21 08:15:00 SCCM8
05020500 St. Mary River at International Boundary 7.5 5.46 Ice 40,000 2017-02-21 08:10:00  
06006000 Red Rock Cr ab Lakes nr Lakeview MT   2.57 Ssn 293 2017-02-21 08:30:00 RRLM8
06012500 Red Rock R bl Lima Reservoir nr Monida MT   1.18 Ssn 2,500 2017-02-21 08:30:00 LRRM8
06016000 Beaverhead River at Barretts MT   0.76 Ssn 3,720 2016-11-03 00:00:00 BARM8
06017000 Beaverhead River at Dillon MT   3.69 Ssn 1,740 2016-11-01 23:45:00 DILM8
06018500 Beaverhead River near Twin Bridges MT 7 4.51 Ice 3,130 2017-02-21 08:15:00 TWNM8
06019500 Ruby River above reservoir near Alder, MT   2.92 Ice 3,810 2017-02-21 08:45:00 RRRM8
06020600 Ruby River below reservoir near Alder, MT   2.26 52 3,010 2017-02-21 08:45:00 RRBM8
06023000 Ruby River near Twin Bridges MT  

 

Ssn 1,500 2016-10-05 23:45:00 RTBM8
06023100 Beaverhead River at Twin Bridges, MT  

 

Ssn   2016-10-07 10:30:00 TWBM8
06023500 Big Hole River near Jackson MT   1.22 Ssn 938 2017-02-21 08:15:00 JKSM8
06023800 Big Hole River ab Spring Creek nr Jackson MT   2.33 Ssn 474 2017-02-21 09:00:00 SCRM8
06024020 Big Hole River at Miner Creek nr Jackson MT   1.45 Ssn 2,300 2017-02-21 08:15:00 MCKM8
06024450 Big Hole River bl Big Lake Cr at Wisdom MT   9.35 Ssn 4,300 2017-02-15 10:30:00 BGKM8
06024540 Big Hole River bl Mudd Cr nr Wisdom MT   3.03 Ssn 6,660 2016-11-01 23:45:00 BHDM8
06024580 Big Hole River near Wise River MT   9.58 Ssn 9,130 2017-01-05 11:45:00 WSVM8
06025250 Big Hole River at Maiden Rock nr Divide MT   1.43 Ssn 10,600 2017-02-20 17:00:00 MRDM8
06025500 Big Hole River near Melrose MT 6 1.63 Ice 23,000 2017-02-21 08:15:00 MLRM8
06026210 Big Hole River near Glen MT   2.80 Ssn 11,900 2016-11-02 14:30:00 GNLM8
06026420 Big Hole R bl Hamilton Ditch nr Twin Bridges, MT   1.85 Ssn 11,200 2016-11-03 08:30:00  
06026500 Jefferson River near Twin Bridges MT 10 3.92 1,170 16,500 2017-02-21 08:15:00 TWIM8
06027600 Jefferson River at Parsons Bdg nr Silver Star, MT  

 

Ssn 13,600 2016-10-02 23:45:00 PBRM8
06033000 Boulder River near Boulder MT   5.13 45 7,000 2017-02-21 08:15:00  
06035000 Willow Creek near Harrison MT   1.46 Ssn 813 2017-02-21 08:15:00 WCHM8
06036650 Jefferson River near Three Forks MT 8 5.59 Ice 17,400 2017-02-21 08:00:00 TFKM8
06036805 Firehole River at Old Faithful, YNP   2.44 46 477 2017-02-21 09:00:00 FOFW4
06036905 Firehole River near West Yellowstone MT   3.12 262 2,050 2017-02-21 08:00:00 FRYW4
06036940 Tantalus Creek at Norris Junction, YNP   1.67 6.3 25 2017-02-21 08:30:00 TCKW4
06037100 Gibbon River at Madison Jct, YNP   4.44 98 1,010 2017-02-21 08:00:00 GMJW4
06037500 Madison River near West Yellowstone MT   1.83 430 2,820 2017-02-21 08:30:00 MDSM8
06038500 Madison River bl Hebgen Lake nr Grayling MT   1.59 804 10,200 2017-02-21 08:45:00 HBDM8
06038800 Madison River at Kirby Ranch nr Cameron MT   1.80 860 5,030 2017-02-21 08:45:00 CMRM8
06040000 Madison River near Cameron MT   2.43 Ssn 8,830 2017-02-21 08:15:00 CMNM8
06040800 Madison River ab powerplant nr McAllister MT   3.35 130 5,940 2017-02-21 07:45:00 MRPM8
06041000 Madison River bl Ennis Lake nr McAllister MT   2.42 1,500 9,550 2017-02-21 08:45:00 MADM8
06043500 Gallatin River near Gallatin Gateway MT 6 1.36 361 9,160 2017-02-21 08:00:00 GLGM8
06048650 E Gallatin R ab Water Reclamation Fa nr Bozeman MT   3.48 68 499 2017-02-21 08:30:00  
06050000 Hyalite C at Hyalite R S nr Bozeman MT   2.22 21 956 2017-02-21 08:30:00  
06052500 Gallatin River at Logan MT 9 4.92 882 9,840 2017-02-21 08:00:00 LOGM8
06054500 Missouri River at Toston MT 10.5 4.84 4,590 34,000 2017-02-21 08:00:00 TOSM8
06061500 Prickly Pear Creek near Clancy MT   0.73 29 2,300 2017-02-21 08:30:00 PKPM8
06062500 Tenmile Creek near Rimini MT   1.32 1.4 3,290 2017-02-21 08:45:00 RIMM8
06063000 Tenmile Creek near Helena MT 4.5 2.33 Ice 3,770 2017-02-21 08:15:00  
06065500 Missouri River bl Hauser Dam near Helena MT   3.48 3,540 33,300 2017-02-21 08:00:00 HASM8
06066500 Missouri River bl Holter Dam nr Wolf Cr MT   2.55 3,580 34,800 2017-02-21 08:45:00 HTRM8
06071300 Little Prickly Pear Cr at Wolf Cr MT   3.16 67 4,500 2017-02-21 08:45:00 LPPM8
06073500 Dearborn River near Craig MT 6.5 3.40 150 15,400 2017-02-21 08:15:00 DBRM8
06074000 Missouri River at Cascade MT   6.83 3,760 54,250 2017-02-21 08:30:00  
06076690 Smith River near Ft Logan MT   3.18 Ice 4,600 2017-02-21 08:30:00 SFLM8
06077200 Smith River bl Eagle Cr nr Fort Logan MT   5.13 Ice 4,030 2017-02-21 08:15:00 SMHM8
06077500 Smith River near Eden MT   3.52 Ice 12,300 2017-02-21 08:45:00 EDNM8
06078200 Missouri River near Ulm MT 13.5 3.72 Ice 35,000 2017-02-21 08:00:00 ULMM8
06078500 North Fork Sun River near Augusta MT   3.49 Ice 51,100 2017-02-21 08:30:00 NFSM8
06079000 South Fork Sun River near Augusta MT   2.81 Ice 4,370 2017-02-21 08:15:00 SSNM8
06080900 Sun River bl Diversion Dam nr Augusta MT   3.75 Ssn 59,700 2017-02-21 08:45:00  
06082200 Sun River bl Willow Cr nr Augusta MT   2.15 225 46,700 2017-02-21 08:15:00  
06085800 Sun River at Simms MT 7.5 2.41 Ice 50,000 2017-02-21 08:30:00 SSRM8
06088500 Muddy Creek at Vaughn MT 12 2.93 Ice 7,600 2017-02-21 08:30:00 MDYM8
06089000 Sun River near Vaughn MT 6 2.31 Ice 53,500 2017-02-21 08:00:00 VAUM8
06090000 Missouri River at Great Falls MT   10.85

 

  2017-02-21 08:30:00  
06090300 Missouri River near Great Falls MT   3.19 5,010 72,000 2017-02-21 08:45:00 GFLM8
06090500 Belt Creek near Monarch MT 6.5 2.12 Ice 11,000 2017-02-21 08:15:00  
06090800 Missouri River at Fort Benton MT 13.5 2.33 5,370 140,000 2017-02-21 08:30:00 FBNM8
06091700 Two Medicine River bl South Fork nr Browning MT   2.38 Ice 11,700 2017-02-21 08:15:00 TMRM8
06093200 Badger Cr bl Four Horns Canal nr Browning MT 7 4.49 131 20,700 2017-02-21 08:15:00 BDCM8
06099000 Cut Bank Creek at Cut Bank MT   3.39 Ice 16,600 2017-02-21 08:30:00  
06099500 Marias River near Shelby MT 9 4.69 Ice 241,000 2017-02-21 08:30:00 SHLM8
06101500 Marias River near Chester MT   3.45 515 10,400 2017-02-21 08:15:00 MRCM8
06102050 Marias River near Loma MT   1.24 Ssn 10,800 2016-11-04 01:30:00 LOMM8
06102500 Teton River bl South Fork nr Choteau MT   3.63 54 54,600 2017-02-21 08:45:00 TSFM8
06108000 Teton River near Dutton MT 9 2.46 Ice 71,300 2017-02-21 08:30:00 DTTM8
06108800 Teton River at Loma MT   3.31 Ice 3,910 2017-02-21 08:30:00 LTRM8
06109500 Missouri River at Virgelle MT 17 6.71 Ice 122,000 2017-02-21 08:00:00 VRGM8
06110020 Judith River above Carr Creek near Utica MT   2.30 7.2 542 2017-02-21 08:30:00  
06111800 Big Spring Cr at R&B Trading Post nr Lewistown MT   3.81 168 1,020 2017-02-21 08:30:00  
06114700 Judith River nr mouth, nr Winifred MT   5.98 Ssn 15,300 2017-02-21 08:15:00 JDRM8
06115200 Missouri River near Landusky MT 25 19.06 Ice 137,000 2017-02-21 08:00:00 LDKM8
06118500 South Fork Musselshell R ab Martinsdale MT   3.44 Ice 5,240 2017-02-21 08:30:00  
06119600 Musselshell River nr Martinsdale, MT   1.91 Ssn 4,780 2017-02-21 08:15:00 MRMM8
06120500 Musselshell River at Harlowton MT 7 3.24 Ice 7,270 2017-02-21 09:00:00 HLWM8
06123030 Musselshell River ab Mud Cr nr Shawmut MT 6.5 2.81 Ssn 8,900 2017-02-21 08:30:00 SHAM8
06125600 Musselshell River ab Big Coulee Creek at Lavina MT 8.5 2.36 Ssn 4,890 2017-02-21 08:30:00  
06126500 Musselshell River near Roundup MT 10 1.89 201 15,000 2017-02-21 08:00:00 RUPM8
06127500 Musselshell River at Musselshell MT 11 3.76 Ssn 16,200 2017-02-21 08:30:00 MUSM8
06130000 Flatwillow Creek near Mosby MT   6.45 Rat 19,700 2017-02-21 09:00:00  
06130500 Musselshell River at Mosby MT 10 3.33 514 25,100 2017-02-21 08:45:00 MSBM8
06131200 Nelson Creek near Van Norman MT   3.21 Ice 1,750 2017-02-21 08:15:00  
06132000 Missouri River below Fort Peck Dam MT   1.89

 

65,900 2017-02-21 08:15:00 FPMM8
06133500 N F Milk River ab St. Mary canal nr Browning MT   1.77 Ssn 3,090 2017-02-21 08:15:00 NFMM8
06135000 Milk River at Eastern Crossing of Int Bndry 9.5 5.19 Ssn 14,400 2017-02-21 08:15:00 ERNM8
06139500 Big Sandy Creek near Havre MT 8.5 5.37 Ssn 6,000 2017-02-21 08:30:00 BSMM8
06140500 Milk River at Havre MT 10 1.77 Ice 20,000 2017-02-21 08:15:00 HVRM8
06142400 Clear Creek near Chinook MT 5.5 2.61 Ssn 1,490 2017-02-21 08:30:00 CCMM8
06151500 Battle Creek near Chinook MT 10 6.10 Ssn 19,400 2017-02-21 08:30:00 BCMM8
06154100 Milk River near Harlem MT 21 9.86 Ssn 19,000 2017-02-21 08:30:00 HRLM8
06154400 Peoples Creek near Hays MT   3.63 Ice 8,460 2017-02-21 08:15:00 PEOM8
06155030 Milk River near Dodson MT 23 13.02 Ssn 13,200 2017-02-21 08:15:00 DMRM8
06155500 Milk River at Malta MT 16 4.63 Ice 24,000 2017-02-21 08:45:00  
06164000 Frenchman River at international boundary   3.849 Ssn 22,700 2017-02-21 08:25:00  
06164510 Milk River at Juneberg Bridge nr Saco MT 20 8.55 Ice 12,400 2017-02-21 08:00:00 SACM8
06166000 Beaver Cr bl Guston Coulee nr Saco MT 11

 

Ssn 23,500 2017-02-21 08:15:00 GSCM8
06167500 Beaver Creek near Hinsdale MT 14 9.60 Ssn 8,210 2017-02-21 08:30:00 BCHM8
06169500 Rock Creek bl Horse Creek nr int'l boundary   5.90 Ice 5,110 2017-02-21 08:30:00 ORHM8
06172310 Milk River at Tampico MT 23 17.24 Ssn 19,700 2017-02-21 08:30:00 TMPM8
06174500 Milk River at Nashua MT 20 16.25 Ice 45,300 2017-02-21 08:00:00 NSHM8
06175100 Missouri R at W Frazer Pump Plant nr Frazer MT   2.95

 

  2017-02-19 07:00:00  
06175510 Missouri R at E Frazer Pump Plant nr Frazer MT   43.54

 

  2017-02-21 08:30:00  
06175520 Missouri River near Oswego MT   87.36

 

  2017-02-21 08:45:00  
06177000 Missouri River near Wolf Point MT 23 15.64 Ice 93,200 2017-02-21 08:00:00 RDVM8
06177500 Redwater River at Circle MT 11 3.80 Ice 6,960 2017-02-21 08:30:00 RRCM8
06178000 Poplar River at international boundary 6 3.58 Ssn 12,700 2017-02-21 08:15:00 PPRM8
06178500 East Poplar River at international boundary 10 5.37 Ice 4,020 2017-02-21 08:30:00 EPRM8
06181000 Poplar River near Poplar MT 15.5 9.54 Ice 40,000 2017-02-21 08:30:00 PLRM8
06183450 Big Muddy Creek near Antelope MT 12 11.25 Ice 3,190 2017-02-21 08:15:00 BGCM8
06185110 Big Muddy Creek nr mouth nr Culbertson MT   6.95 Ice 1,860 2017-02-21 08:15:00  
06185500 Missouri River near Culbertson MT 19 6.56 Ice 104,000 2017-02-21 08:00:00 CLBM8
06186500 Yellowstone River at Yellowstone Lk Outlet YNP 9 3.32 Ice 9,950 2017-02-21 08:30:00 YLOW4
06187915 Soda Butte Cr at Park Bndry at Silver Gate   0.38 Ice 1,250 2017-02-21 08:45:00 SBCM8
06188000 Lamar River nr Tower Ranger Station YNP 15 2.79 Ice 19,500 2017-02-21 08:15:00 TFLW4
06190540 Boiling River at Mammoth,YNP   1.00 19 36 2017-02-21 08:15:00 BRMW4
06191000 Gardner River near Mammoth YNP   2.18 113 2,110 2017-02-21 08:45:00 GDRM8
06191500 Yellowstone River at Corwin Springs MT 11 1.33 1,080 32,200 2017-02-21 08:00:00 CORM8
06192500 Yellowstone River near Livingston MT 9.5 1.41 1,540 40,600 2017-02-21 08:45:00 LIVM8
06195600 Shields River nr Livingston MT 5.5 1.93 346 5,600 2017-02-21 08:30:00 SLDM8
06200000 Boulder River at Big Timber MT 7 2.26 176 9,940 2017-02-21 08:45:00 BTMM8
06204050 West Rosebud Creek near Roscoe MT   1.15 150 1,630 2017-02-21 09:00:00 WRDM8
06204070 W Rosebud Cr at Emerald Lk Campground nr Roscoe   1.77 90 1,390 2017-02-21 08:30:00 WREM8
06205000 Stillwater River near Absarokee MT 6.5 2.10 465 12,000 2017-02-21 08:15:00 SRAM8
06207500 Clarks Fork Yellowstone River nr Belfry MT 8 1.10 193 14,800 2017-02-21 09:00:00 BFYM8
06208500 Clarks Fork Yellowstone River at Edgar MT 8.5 2.55 Ice 11,100 2017-02-21 08:30:00 EDGM8
06209500 Rock Creek near Red Lodge MT   4.58 Ice 3,110 2017-02-21 09:00:00 ROKM8
06211000 Red Lodge Cr ab Cooney Re nr Boyd MT   2.14 Ssn 4,700 2017-02-21 08:15:00 BYDM8
06211500 Willow Creek near Boyd MT   3.61 Ssn 2,110 2017-02-21 08:30:00 BOYM8
06214500 Yellowstone River at Billings MT 13.5 3.74 5,260 82,000 2017-02-21 08:00:00 BILM8
06216900 Pryor Creek nr Huntley MT   4.64 224 17,500 2017-02-21 08:30:00  
06287000 Bighorn River near St. Xavier, MT   60.73 3,650 37,400 2017-02-21 08:15:00 STXM8
06287800 Bighorn River at bridge, at St. Xavier, MT   7.14 3,610 14,700 2017-02-21 08:30:00  
06288400 Bighorn River at Two Leggins Bridge, near Hardin   10.98 3,740 15,100 2017-02-21 08:30:00  
06289000 Little Bighorn River at State Line nr Wyola MT   2.20 60 2,730 2017-02-21 09:00:00 LBSM8
06294000 Little Bighorn River near Hardin MT 8 4.37 Ice 22,600 2017-02-21 08:15:00 HRDM8
06294500 Bighorn River ab Tullock Cr nr Bighorn MT   3.18 4,890 33,200 2017-02-21 08:00:00 BGHM8
06295000 Yellowstone River at Forsyth MT 14 3.89 Ice 109,800 2017-02-21 08:45:00 FRYM8
06295113 Rosebud C at Reservation Bndry nr Kirby MT   4.44 Ice 1,720 2017-02-21 08:45:00 RCRM8
06295220 Rosebud C Bel Lame Deer C nr Lame Deer MT   5.61 Ice 9,350 2017-02-21 08:45:00  
06306300 Tongue River at State Line nr Decker MT   4.48 Ice 17,500 2017-02-21 08:45:00 DSLM8
06307500 Tongue River at Tongue R Dam nr Decker MT   10.80 161 10,800 2017-02-21 08:30:00 DKRM8
06307600 Hanging Woman Creek near Birney MT   0.98 Ice 2,060 2017-02-21 08:00:00 HWCM8
06307616 Tongue R at Birney Day School Br nr Birney MT 7 2.14 Ice 5,340 2017-02-21 08:30:00 BNYM8
06307830 Tongue R bl Brandenberg bridge nr Ashland MT   4.05 Ice 8,340 2017-02-21 08:15:00  
06308400 Pumpkin Creek near Miles City MT 13 4.79 Ice 7,900 2017-02-21 08:45:00 PMKM8
06308500 Tongue River at Miles City MT 10 4.84 Ice 15,300 2017-02-21 08:00:00 MICM8
06309000 Yellowstone River at Miles City MT 13 5.35 Ice 102,000 2017-02-21 08:00:00 MILM8
06324500 Powder River at Moorhead MT   4.96 Ice 100,000 2017-02-21 08:45:00 MHDM8
06326500 Powder River near Locate MT   2.98 Ice 31,000 2017-02-21 08:00:00 LOCM8
06327500 Yellowstone River at Glendive MT 53.5 50.23 Ice 125,000 2017-02-21 08:00:00 GLNM8
06329500 Yellowstone River near Sidney MT 19 7.31 Ice 159,000 2017-02-21 08:00:00 SIDM8
12301250 Tobacco River at Eureka, MT   2.88 Ice 1,940 2017-02-21 08:30:00  
12301933 Kootenai River bl Libby Dam nr Libby MT 27.5 17.85 4,100 54,000 2017-02-21 08:00:00 KBDM8
12302055 Fisher River near Libby MT 7.5 4.21 Ice 12,000 2017-02-21 08:45:00 FISM8
12304500 Yaak River near Troy MT 8 4.45 Ice 13,400 2017-02-21 08:45:00 TRYM8
12323240 Blacktail Creek at Butte MT 4.3 1.08 Ice 303 2017-02-21 08:45:00 BKTM8
12323250 Silver Bow Cr bl Blacktail Cr at Butte MT   1.73 28 447 2017-02-21 08:45:00 SLVM8
12323600 Silver Bow Creek at Opportunity MT   2.14 Ice 1,300 2017-02-21 08:45:00 OPPM8
12323670 Mill Creek nr Anaconda, MT   2.14 Ice 432 2017-02-21 08:00:00 MCAM8
12323700 Mill Creek at Opportunity, MT   2.24 Ice 284 2017-02-21 08:30:00 MCOM8
12323710 Willow Creek nr Anaconda, MT   1.85 Ice 165 2017-02-21 08:00:00 WCAM8
12323720 Willow Creek at Opportunity, MT   3.86 4.9 202 2017-02-21 08:30:00 WCOM8
12323750 Silver Bow Creek at Warm Springs MT   2.22 116 1,320 2017-02-21 08:30:00 WMSM8
12323760 Warm Springs Creek near Anaconda MT 4.4 1.89 Ice 930 2017-02-21 08:30:00 ANDM8
12323770 Warm Springs Creek at Warm Springs MT   2.91 Ice 828 2017-02-21 08:45:00 WSPM8
12323800 Clark Fork near Galen MT   2.25 145 1,410 2017-02-21 08:30:00 GALM8
12323840 Lost Creek near Anaconda MT   2.46 Ice 101 2017-02-21 08:00:00  
12323850 Lost Creek near Galen, MT   2.01 42 164 2017-02-21 08:30:00 LCGM8
12324200 Clark Fork at Deer Lodge MT 6 2.87 286 2,500 2017-02-21 08:30:00 DLGM8
12324400 Clark Fork ab Little Blackfoot R nr Garrison MT   3.48 283 2,690 2017-02-21 08:45:00  
12324590 Little Blackfoot River near Garrison MT   1.84 Ice 8,650 2017-02-21 08:30:00 LBFM8
12324680 Clark Fork at Goldcreek MT   4.65 Ice 12,000 2017-02-21 09:00:00 GLDM8
12325500 Flint Creek near Southern Cross MT   0.48 Ssn 192 2017-02-21 08:45:00 FTCM8
12329500 Flint Creek at Maxville MT   2.34 Ice 1,680 2017-02-21 08:45:00 FLNM8
12330000 Boulder Creek at Maxville MT   1.13 Ice 1,580 2017-02-21 08:30:00 BMXM8
12331500 Flint Creek near Drummond MT   2.67 Ice 1,460 2017-02-21 08:30:00 FCKM8
12331800 Clark Fork near Drummond MT 8 3.50 825 9,800 2017-02-21 08:15:00 DRMM8
12332000 Middle Fork Rock Cr nr Philipsburg MT   2.27 Ice 1,680 2017-02-21 08:15:00 MFRM8
12334510 Rock Creek near Clinton MT 9 5.18 284 6,500 2017-02-21 08:45:00 RCCM8
12334550 Clark Fork at Turah Bridge nr Bonner MT   4.54 1,420 13,300 2017-02-21 08:30:00 BNRM8
12335100 Blackfoot R ab Nevada Cr nr Helmville MT   3.87 Ice 4,860 2017-02-21 08:45:00 BLAM8
12335500 Nevada Cr ab reservoir, nr Helmville, MT   2.54 Ice 1,800 2017-02-21 08:45:00 NVDM8
12338300 NF Blackfoot R ab Dry Gulch nr Ovando MT   2.51 135 4,700 2017-02-21 09:00:00 NFRM8
12340000 Blackfoot River near Bonner MT 10 2.50 Ice 19,200 2017-02-21 08:45:00 BONM8
12340500 Clark Fork above Missoula MT 10 3.47 Ice 48,000 2017-02-21 09:00:00 ABOM8
12342500 West Fork Bitterroot River nr Conner MT   1.17 66 4,060 2017-02-21 08:15:00 WFBM8
12344000 Bitterroot River near Darby MT 7.5 1.75 418 11,500 2017-02-21 08:15:00 DARM8
12350250 Bitterroot River at Bell Crossing nr Victor MT 11 4.76 Ssn 18,700 2016-12-01 12:45:00 VIBM8
12352500 Bitterroot River near Missoula MT 11 4.35 2,100 38,300 2017-02-21 08:45:00 BITM8
12353000 Clark Fork below Missoula MT 11 2.67 4,530 55,100 2017-02-21 09:00:00 BELM8
12354000 St. Regis River near St. Regis, MT 8 3.58 677 29,000 2017-02-21 08:45:00 STRM8
12354500 Clark Fork at St. Regis MT 19 7.31 6,590 68,900 2017-02-21 08:45:00 SRGM8
12355000 Flathead River at Flathead British Columbia 10.5 5.20 Ice 16,300 2017-02-21 08:30:00 NFFQ2
12355500 N F Flathead River nr Columbia Falls MT 13 2.50 Ice 69,100 2017-02-21 08:45:00 FCFM8
12358500 M F Flathead River near West Glacier MT 10 2.11 905 140,000 2017-02-15 22:45:00 WGCM8
12359800 S F Flathead R ab Twin C nr Hungry Horse MT   6.09 Ssn 50,900 2017-02-21 08:45:00 TNCM8
12362000 Hungry Horse Reservoir nr Hungry Horse MT   3541.48

 

  2017-02-21 08:45:00 HHWM8
12362500 S F Flathead River nr Columbia Falls MT   4.30 995 46,200 2017-02-21 08:45:00  
12363000 Flathead River at Columbia Falls MT 13 3.39 3,880 176,000 2017-02-21 08:45:00 CFMM8
12365700 Stillwater River at Lawrence Park, at Kalispell 7.5 4.60 Ice 3,940 2017-02-21 08:45:00 SRLM8
12366080 Whitefish River nr mouth at Kalispell, MT 8.3 2.09 Ice 1,450 2017-02-21 08:45:00 WFRM8
12366500 Flathead River at Foys Bend nr Kalispell MT   87.94

 

  2017-02-21 05:45:00  
12370000 Swan River near Bigfork, MT 6.5 2.74 739 8,890 2017-02-21 08:00:00 SWRM8
12371550 Flathead Lake at Polson MT   2884.87

 

  2017-02-21 08:30:00 KERM8
12372000 Flathead River near Polson MT 18 5.92 8,610 110,000 2017-02-21 08:30:00 FPOM8
12374250 Mill Cr ab Bassoo Cr nr Niarada MT   1.45 Ice 283 2017-02-21 08:15:00  
12375900 South Crow Creek near Ronan MT   2.03 9.3 608 2017-02-21 08:15:00  
12377150 Mission Creek ab reservoir nr St. Ignatius MT   1.44 Ice 706 2017-02-21 08:15:00 MSNM8
12381400 South Fork Jocko River near Arlee MT   1.16 Ice 1,220 2017-02-21 08:15:00 ARLM8
12388700 Flathead River at Perma MT   8.97 8,600 54,900 2017-02-21 08:30:00 PERM8
12389000 Clark Fork near Plains MT 16 5.61 15,500 134,000 2017-02-21 08:45:00 PLNM8
12389500 Thompson River near Thompson Falls MT 7 3.30 Ice 6,190 2017-02-21 08:45:00 THRM8
12390700 Prospect Creek at Thompson Falls MT 7.5 2.72 389 5,490 2017-02-21 08:15:00 PRCM8
480608115242901 Libby Wetland Site bl Schrieber Lake nr Libby, MT   1.53 Ice 34 2017-02-21 08:30:00